Home   Weather   Salta   Past weeks
Flag for Argentina

Past Weather in Salta, Salta, Argentina — Yesterday and Last 2 Weeks

Now
75 °F

Passing clouds.


Feels Like: 77 °F
Forecast: N/A
Wind: 6 mph from North

Location: Salta Aerodrome

Current Time: Aug 24, 2019 at 5:06:36 pm

Latest Report: Aug 24, 2019 at 4:00 pm


Visibility: N/A

Pressure: 29.98 "Hg (26.16 "Hg at 1184m altitude)

Humidity: 29%

Dew Point: 41 °F

Location of SaltaLocation

Past Weather in Salta — Graph

°F

Salta Temperature Yesterday

Maximum temperature yesterday: 72 °F (at 3:00 pm)
Minimum temperature yesterday: 36 °F (at 7:00 am)
Average temperature yesterday: 54 °F

High & Low Weather Summary for the Past Weeks

 TemperatureHumidityPressure
High88 °F (Aug 17, 3:00 pm)93% (Aug 10, 8:00 am)30.54 "Hg (Aug 10, 8:00 am)
Low27 °F (Aug 10, 7:00 am)8% (Aug 17, 4:00 pm)29.77 "Hg (Aug 17, 3:00 pm)
Average52 °F55%30.17 "Hg
* Reported Aug 9 4:00 pm — Aug 24 4:00 pm, Salta. Weather by CustomWeather, © 2019

Note: Actual official high and low records may vary slightly from our data, if they occured in-between our weather recording intervals... More about our weather records

Advertising

Salta Weather History for the Previous 24 Hours

Scroll right to see more
 ConditionsComfort  
Time TempWeatherWind HumidityBarometerVisibility
4:00 pm
Sat, Aug 24
75 °FPassing clouds.6 mph29%29.98 "HgN/A
3:00 pm73 °FPassing clouds.2 mph31%30.01 "HgN/A
2:00 pm70 °FSunny.6 mph35%30.04 "Hg10 mi
1:00 pm68 °FSunny.6 mph38%30.07 "Hg10 mi
12:00 pm64 °FSunny.2 mph46%30.12 "Hg10 mi
11:00 am61 °FSunny.3 mph52%30.15 "Hg10 mi
10:00 am54 °FSunny.3 mph67%30.12 "Hg10 mi
9:00 am45 °FSunny.2 mph87%30.12 "Hg10 mi
8:00 am39 °FSunny.2 mph93%30.09 "Hg10 mi
7:00 am39 °FClear.3 mph87%30.07 "Hg10 mi
6:00 am39 °FClear.No wind93%30.07 "Hg10 mi
5:00 am41 °FClear.2 mph87%30.07 "Hg10 mi
4:00 am43 °FClear.No wind87%30.07 "Hg10 mi
3:00 am45 °FClear.5 mph76%30.09 "Hg10 mi
2:00 am43 °FClear.No wind87%30.12 "Hg10 mi
1:00 am45 °FClear.No wind81%30.12 "Hg10 mi
12:00 am48 °FClear.3 mph71%30.15 "Hg10 mi
11:00 pm
Fri, Aug 23
48 °FClear.2 mph71%30.15 "Hg10 mi
10:00 pm54 °FClear.5 mph63%30.15 "Hg10 mi
9:00 pm57 °FClear.5 mph55%30.15 "Hg10 mi
8:00 pm61 °FClear.7 mph45%30.12 "Hg10 mi
7:00 pm64 °FSunny.12 mph37%30.12 "Hg10 mi
6:00 pm68 °FSunny.14 mph30%30.12 "Hg10 mi
5:00 pm70 °FSunny.14 mph27%30.12 "Hg10 mi
Weather by CustomWeather, © 2019

See weather overview